Temp
1 1 1 1 1 1 1 1 2 2 2 3 3 4 4 5 5 6 7 8 9 10
-0 -1 -1 -1 -0 0 0 0 1 1 1 2 2 3 4 4 5 6 6 7 8 9
-1 -1 -1 -2 -1 -1 -1 -1 -0 0 1 1 2 3 3 4 4 5 6 7 8 8
-2 -2 -2 -2 -2 -2 -2 -2 -1 -1 0 1 1 2 2 3 3 5 6 7 7 8
-3 -3 -3 -3 -3 -3 -2 -2 -2 -1 -0 0 1 2 2 2 3 4 5 6 7 8
-4 -3 -3 -3 -3 -3 -3 -3 -2 -2 -1 -0 0 2 1 2 2 3 4 5 7 8
-4 -4 -4 -4 -4 -4 -3 -3 -3 -2 -2 -1 -1 1 1 1 2 2 3 5 6 8
-5 -5 -5 -4 -4 -4 -4 -4 -3 -3 -2 -2 -1 1 1 1 2 2 3 4 6 8
-5 -5 -5 -5 -5 -5 -4 -4 -4 -3 -3 -2 -1 1 1 1 2 2 3 3 5 7
-5 -5 -5 -5 -5 -5 -5 -5 -4 -4 -3 -3 -1 0 1 1 2 2 3 3 5 6
-6 -6 -6 -5 -5 -5 -5 -5 -5 -4 -4 -3 -1 0 0 1 1 2 3 3 5 6
-6 -6 -6 -5 -5 -5 -5 -5 -5 -4 -3 -2 -1 -0 0 0 1 2 3 3 5 6
-7 -6 -6 -5 -5 -5 -5 -5 -4 -4 -3 -2 -1 -0 1 2 2 2 3 4 4 6
-7 -7 -6 -5 -5 -5 -5 -4 -4 -3 -2 -1 -1 -1 1 1 2 2 3 3 4 4
Height
827 824 820 816 811 807 804 800 797 795 792 788 784 783 782 779 776 774 774 774 775 774
824 822 818 814 809 804 799 796 792 790 787 783 781 780 777 774 772 770 768 768 769 768
819 816 813 809 804 801 797 792 788 784 782 779 776 774 772 768 766 764 762 761 762 761
815 810 807 802 798 795 791 787 783 780 777 774 770 768 767 764 760 757 756 754 754 754
810 806 801 796 791 787 783 780 777 774 772 767 763 761 760 758 754 751 748 746 745 746
806 800 795 790 786 782 779 776 773 769 766 761 759 756 754 752 748 745 741 738 737 737
801 796 790 785 781 778 774 770 766 762 759 754 751 749 746 743 739 736 733 731 729 728
797 792 786 781 776 772 768 764 759 755 751 747 744 741 739 736 732 729 725 722 720 716
792 786 781 775 770 765 760 756 752 748 743 739 735 733 731 729 725 721 718 715 711 711
787 781 775 769 763 758 754 749 745 740 736 730 727 725 722 720 716 713 709 707 704 704
783 776 770 764 758 753 748 743 738 733 728 723 719 716 713 710 707 703 700 697 696 695
778 771 766 760 753 747 742 737 731 727 721 717 711 708 704 700 697 693 691 689 688 688
773 767 761 754 747 741 736 730 725 719 714 709 704 699 694 690 686 684 682 681 681 682
768 762 755 748 742 735 729 723 718 712 707 702 697 693 689 685 681 678 677 677 677 679
Wind_Speed
25 25 26 26 26 23 22 24 25 22 19 23 21 20 20 20 21 18 18 18 20 20
20 20 21 23 24 26 24 23 24 23 22 20 20 21 20 21 21 20 20 20 21 23
23 21 22 21 20 21 23 22 25 24 21 21 20 20 21 20 20 20 20 21 24 24
25 25 25 24 22 22 22 22 23 23 23 22 20 20 22 23 23 23 23 22 24 25
27 26 25 25 26 26 25 25 23 22 22 23 22 22 22 24 23 23 24 23 25 26
28 27 27 27 28 26 25 25 24 22 23 23 23 23 23 24 25 25 25 26 26 26
28 28 29 28 27 27 26 27 25 24 24 24 25 24 25 25 26 26 26 26 28 28
28 28 27 27 26 26 26 27 27 26 26 24 25 24 23 25 25 26 28 28 27 29
28 28 27 27 27 27 28 28 27 26 26 27 25 24 26 28 28 28 28 28 27 24
27 27 28 29 29 28 28 28 28 28 28 29 27 26 29 28 29 28 28 28 27 26
27 28 29 28 28 29 28 27 28 29 29 28 29 28 28 28 30 29 29 29 29 27
28 29 29 29 29 30 28 27 28 27 27 27 29 27 30 29 27 26 27 28 25 31
30 29 30 31 31 30 27 27 27 27 27 28 29 28 25 23 26 23 25 20 23 25
31 30 29 30 30 29 28 27 26 26 27 25 25 22 19 16 14 17 17 14 16 20
Wind_Direction
333 328 326 323 319 313 308 310 313 310 306 310 312 300 297 286 276 272 266 262 256 248
324 318 314 315 317 315 310 308 309 305 302 303 304 296 289 290 276 271 265 260 258 250
320 316 313 312 308 307 305 307 308 304 299 298 300 292 293 286 281 266 264 261 255 247
318 316 314 312 310 309 306 308 307 302 299 295 299 290 291 285 285 278 274 264 252 247
315 314 313 312 313 314 311 311 307 302 297 296 298 289 289 289 282 279 277 276 253 245
314 314 314 313 313 311 308 305 302 299 295 294 292 284 283 284 282 278 274 273 264 248
312 312 311 309 307 306 306 303 301 298 295 293 290 279 284 286 283 279 278 276 276 243
308 306 305 305 304 304 302 300 298 297 296 291 287 274 282 285 281 281 281 281 274 238
307 306 306 306 306 304 302 301 300 296 294 292 287 276 284 284 279 279 273 274 276 264
309 309 309 309 308 304 301 300 296 295 294 291 289 284 287 282 278 277 269 268 267 255
312 311 309 307 304 302 301 297 295 292 292 289 286 287 286 284 280 273 266 266 266 253
314 312 309 305 304 301 299 296 292 291 289 286 286 290 289 283 274 267 266 265 262 235
312 309 305 303 303 300 297 293 292 290 289 289 290 297 301 299 263 257 265 264 238 225
310 306 303 304 302 298 296 295 293 291 292 291 297 292 297 304 302 248 242 214 185 180